Time,TemperatureF,DewpointF,PressureIn,WindDirection,WindDirectionDegrees,WindSpeedMPH,WindSpeedGustMPH,Humidity,HourlyPrecipIn,Conditions,Clouds,dailyrainin,SoftwareType,DateUTC
2013-08-28 00:09:00,63.5,62.9,29.85,South,180,0.0,-999.0,98,-99.99,,,0.00,Acu-Link.com,2013-08-28 04:09:00,
2013-08-28 00:24:00,63.3,62.7,29.85,North,0,0.0,-999.0,98,-99.99,,,0.00,Acu-Link.com,2013-08-28 04:24:00,
2013-08-28 00:40:00,63.0,62.4,29.85,North,0,0.0,-999.0,98,-99.99,,,0.00,Acu-Link.com,2013-08-28 04:40:00,
2013-08-28 00:55:00,62.6,62.0,29.85,North,0,0.0,-999.0,98,-99.99,,,0.00,Acu-Link.com,2013-08-28 04:55:00,
2013-08-28 01:10:00,62.4,61.8,29.85,North,0,0.0,-999.0,98,-99.99,,,0.00,Acu-Link.com,2013-08-28 05:10:00,
2013-08-28 01:26:00,62.2,61.6,29.85,NNE,22,0.0,-999.0,98,-99.99,,,0.00,Acu-Link.com,2013-08-28 05:26:00,
2013-08-28 01:41:00,61.7,61.1,29.84,North,0,0.0,-999.0,98,-99.99,,,0.00,Acu-Link.com,2013-08-28 05:41:00,
2013-08-28 01:56:00,61.5,60.9,29.84,NNE,22,0.0,-999.0,98,-99.99,,,0.00,Acu-Link.com,2013-08-28 05:56:00,
2013-08-28 02:11:00,61.3,60.7,29.84,NNE,22,0.0,-999.0,98,-99.99,,,0.00,Acu-Link.com,2013-08-28 06:11:00,
2013-08-28 02:26:00,61.0,60.4,29.84,NNE,22,0.0,-999.0,98,-99.99,,,0.00,Acu-Link.com,2013-08-28 06:26:00,
2013-08-28 02:42:00,60.8,60.2,29.83,NNE,22,0.0,-999.0,98,-99.99,,,0.00,Acu-Link.com,2013-08-28 06:42:00,
2013-08-28 02:57:00,60.6,60.0,29.84,NNE,22,0.0,-999.0,98,-99.99,,,0.00,Acu-Link.com,2013-08-28 06:57:00,
2013-08-28 03:12:00,60.4,59.8,29.83,NW,315,0.0,-999.0,98,-99.99,,,0.00,Acu-Link.com,2013-08-28 07:12:00,
2013-08-28 03:27:00,60.3,59.7,29.83,NNW,337,0.0,-999.0,98,-99.99,,,0.00,Acu-Link.com,2013-08-28 07:27:00,
2013-08-28 03:42:00,60.1,59.5,29.84,NNW,337,0.0,-999.0,98,-99.99,,,0.00,Acu-Link.com,2013-08-28 07:42:00,
2013-08-28 03:58:00,59.9,59.3,29.84,NNE,22,0.0,-999.0,98,-99.99,,,0.00,Acu-Link.com,2013-08-28 07:58:00,
2013-08-28 04:13:00,59.9,59.3,29.84,NNE,22,0.0,-999.0,98,-99.99,,,0.00,Acu-Link.com,2013-08-28 08:13:00,
2013-08-28 04:28:00,59.9,59.3,29.85,NW,315,0.0,-999.0,98,-99.99,,,0.00,Acu-Link.com,2013-08-28 08:28:00,
2013-08-28 04:43:00,59.7,59.1,29.84,NE,45,0.0,-999.0,98,-99.99,,,0.00,Acu-Link.com,2013-08-28 08:43:00,
2013-08-28 04:58:00,59.4,58.8,29.84,NNW,337,0.0,-999.0,98,-99.99,,,0.00,Acu-Link.com,2013-08-28 08:58:00,
2013-08-28 05:13:00,59.2,58.6,29.85,North,0,0.0,-999.0,98,-99.99,,,0.00,Acu-Link.com,2013-08-28 09:13:00,
2013-08-28 05:29:00,59.2,58.6,29.85,NNW,337,0.0,-999.0,98,-99.99,,,0.00,Acu-Link.com,2013-08-28 09:29:00,
2013-08-28 05:44:00,59.0,58.4,29.86,NW,315,0.0,-999.0,98,-99.99,,,0.00,Acu-Link.com,2013-08-28 09:44:00,
2013-08-28 05:59:00,58.8,58.2,29.86,NNW,337,0.0,-999.0,98,-99.99,,,0.00,Acu-Link.com,2013-08-28 09:59:00,
2013-08-28 06:14:00,58.5,57.9,29.86,NW,315,0.0,-999.0,98,-99.99,,,0.00,Acu-Link.com,2013-08-28 10:14:00,
2013-08-28 06:29:00,58.5,57.9,29.86,NW,315,0.0,-999.0,98,-99.99,,,0.00,Acu-Link.com,2013-08-28 10:29:00,
2013-08-28 06:45:00,58.5,57.9,29.87,NW,315,0.0,-999.0,98,-99.99,,,0.00,Acu-Link.com,2013-08-28 10:45:00,
2013-08-28 07:00:00,58.8,58.2,29.86,NNW,337,0.0,-999.0,98,-99.99,,,0.00,Acu-Link.com,2013-08-28 11:00:00,
2013-08-28 07:15:00,59.4,58.8,29.87,NNW,337,0.0,-999.0,98,-99.99,,,0.00,Acu-Link.com,2013-08-28 11:15:00,
2013-08-28 07:31:00,60.1,59.5,29.87,NNW,337,0.0,-999.0,98,-99.99,,,0.00,Acu-Link.com,2013-08-28 11:31:00,
2013-08-28 07:46:00,60.8,60.2,29.86,NNW,337,0.0,-999.0,98,-99.99,,,0.00,Acu-Link.com,2013-08-28 11:46:00,
2013-08-28 08:01:00,61.7,61.1,29.86,NNW,337,0.0,-999.0,98,-99.99,,,0.00,Acu-Link.com,2013-08-28 12:01:00,
2013-08-28 08:16:00,63.0,62.4,29.86,SSW,202,0.0,-999.0,98,-99.99,,,0.00,Acu-Link.com,2013-08-28 12:16:00,
2013-08-28 08:32:00,64.4,63.8,29.86,ENE,67,0.0,-999.0,98,-99.99,,,0.00,Acu-Link.com,2013-08-28 12:32:00,
2013-08-28 08:47:00,65.3,64.7,29.87,NE,45,0.0,-999.0,98,-99.99,,,0.00,Acu-Link.com,2013-08-28 12:47:00,
2013-08-28 09:02:00,66.6,66.0,29.86,West,270,0.0,-999.0,98,-99.99,,,0.00,Acu-Link.com,2013-08-28 13:02:00,
2013-08-28 09:17:00,69.3,68.7,29.86,West,270,0.0,-999.0,98,-99.99,,,0.00,Acu-Link.com,2013-08-28 13:17:00,
2013-08-28 09:32:00,72.0,71.4,29.85,East,90,1.1,-999.0,98,-99.99,,,0.00,Acu-Link.com,2013-08-28 13:32:00,
2013-08-28 09:48:00,74.5,73.9,29.87,ESE,112,0.0,-999.0,98,-99.99,,,0.00,Acu-Link.com,2013-08-28 13:48:00,
2013-08-28 10:03:00,75.7,75.1,29.86,SW,225,0.0,-999.0,98,-99.99,,,0.00,Acu-Link.com,2013-08-28 14:03:00,
2013-08-28 10:18:00,77.2,76.6,29.86,East,90,0.0,-999.0,98,-99.99,,,0.00,Acu-Link.com,2013-08-28 14:18:00,
2013-08-28 10:33:00,76.8,76.2,29.86,North,0,1.1,-999.0,98,-99.99,,,0.00,Acu-Link.com,2013-08-28 14:33:00,
2013-08-28 10:49:00,78.3,77.7,29.87,WSW,247,0.0,-999.0,98,-99.99,,,0.00,Acu-Link.com,2013-08-28 14:49:00,
2013-08-28 11:04:00,78.6,78.0,29.85,SW,225,0.0,-999.0,98,-99.99,,,0.00,Acu-Link.com,2013-08-28 15:04:00,
2013-08-28 11:19:00,80.2,79.6,29.86,NE,45,0.0,-999.0,98,-99.99,,,0.00,Acu-Link.com,2013-08-28 15:19:00,
2013-08-28 11:34:00,80.8,80.2,29.85,East,90,1.1,-999.0,98,-99.99,,,0.00,Acu-Link.com,2013-08-28 15:34:00,
2013-08-28 11:50:00,81.9,81.3,29.85,West,270,1.7,-999.0,98,-99.99,,,0.00,Acu-Link.com,2013-08-28 15:50:00,
2013-08-28 12:05:00,84.6,82.7,29.84,East,90,1.7,-999.0,94,-99.99,,,0.00,Acu-Link.com,2013-08-28 16:05:00,
2013-08-28 12:20:00,80.2,79.6,29.85,West,270,0.0,-999.0,98,-99.99,,,0.00,Acu-Link.com,2013-08-28 16:20:00,
2013-08-28 12:35:00,79.3,78.7,29.83,WNW,292,0.0,-999.0,98,-99.99,,,0.00,Acu-Link.com,2013-08-28 16:35:00,
2013-08-28 12:51:00,78.1,77.5,29.83,NW,315,0.0,-999.0,98,-99.99,,,0.00,Acu-Link.com,2013-08-28 16:51:00,
2013-08-28 13:06:00,79.0,78.4,29.84,West,270,0.0,-999.0,98,-99.99,,,0.00,Acu-Link.com,2013-08-28 17:06:00,
2013-08-28 13:21:00,79.9,79.3,29.84,SW,225,0.0,-999.0,98,-99.99,,,0.00,Acu-Link.com,2013-08-28 17:21:00,
2013-08-28 13:36:00,78.6,78.0,29.84,South,180,2.2,-999.0,98,-99.99,,,0.00,Acu-Link.com,2013-08-28 17:36:00,
2013-08-28 13:52:00,82.4,81.8,29.83,SW,225,1.1,-999.0,98,-99.99,,,0.00,Acu-Link.com,2013-08-28 17:52:00,
2013-08-28 14:07:00,82.9,81.0,29.83,SSE,157,1.1,-999.0,94,-99.99,,,0.00,Acu-Link.com,2013-08-28 18:07:00,
2013-08-28 14:22:00,82.8,82.2,29.82,East,90,1.1,-999.0,98,-99.99,,,0.00,Acu-Link.com,2013-08-28 18:22:00,
2013-08-28 14:37:00,84.0,82.4,29.82,WNW,292,0.0,-999.0,95,-99.99,,,0.00,Acu-Link.com,2013-08-28 18:37:00,
2013-08-28 14:52:00,83.8,81.6,29.82,NW,315,0.0,-999.0,93,-99.99,,,0.00,Acu-Link.com,2013-08-28 18:52:00,
2013-08-28 15:08:00,82.4,81.8,29.82,West,270,0.0,-999.0,98,-99.99,,,0.00,Acu-Link.com,2013-08-28 19:08:00,
2013-08-28 15:23:00,81.3,80.7,29.81,WNW,292,0.0,-999.0,98,-99.99,,,0.00,Acu-Link.com,2013-08-28 19:23:00,
2013-08-28 15:38:00,79.3,78.7,29.82,WNW,292,0.0,-999.0,98,-99.99,,,0.00,Acu-Link.com,2013-08-28 19:38:00,
2013-08-28 15:53:00,78.8,78.2,29.81,ESE,112,0.0,-999.0,98,-99.99,,,0.00,Acu-Link.com,2013-08-28 19:53:00,
2013-08-28 16:09:00,78.8,78.2,29.80,NW,315,0.0,-999.0,98,-99.99,,,0.00,Acu-Link.com,2013-08-28 20:09:00,
2013-08-28 16:24:00,78.8,78.2,29.80,SSE,157,0.0,-999.0,98,-99.99,,,0.00,Acu-Link.com,2013-08-28 20:24:00,
2013-08-28 16:39:00,79.0,78.4,29.79,SSW,202,1.1,-999.0,98,-99.99,,,0.00,Acu-Link.com,2013-08-28 20:39:00,
2013-08-28 16:54:00,79.0,78.4,29.81,NW,315,0.0,-999.0,98,-99.99,,,0.00,Acu-Link.com,2013-08-28 20:54:00,
2013-08-28 17:10:00,78.1,77.5,29.80,NW,315,0.0,-999.0,98,-99.99,,,0.00,Acu-Link.com,2013-08-28 21:10:00,
2013-08-28 17:25:00,77.2,76.6,29.81,WNW,292,0.0,-999.0,98,-99.99,,,0.00,Acu-Link.com,2013-08-28 21:25:00,
2013-08-28 17:40:00,76.3,75.7,29.81,North,0,0.0,-999.0,98,-99.99,,,0.00,Acu-Link.com,2013-08-28 21:40:00,
2013-08-28 17:56:00,75.4,74.8,29.83,NNE,22,1.1,-999.0,98,-99.99,,,0.00,Acu-Link.com,2013-08-28 21:56:00,
2013-08-28 18:11:00,74.5,73.9,29.82,NE,45,1.7,-999.0,98,-99.99,,,0.00,Acu-Link.com,2013-08-28 22:11:00,
2013-08-28 18:26:00,73.6,73.0,29.84,ENE,67,2.2,-999.0,98,-99.99,,,0.00,Acu-Link.com,2013-08-28 22:26:00,
2013-08-28 18:41:00,72.9,72.3,29.84,NW,315,0.0,-999.0,98,-99.99,,,0.00,Acu-Link.com,2013-08-28 22:41:00,
2013-08-28 18:56:00,72.1,71.5,29.86,ENE,67,0.0,-999.0,98,-99.99,,,0.00,Acu-Link.com,2013-08-28 22:56:00,
2013-08-28 19:12:00,71.2,70.6,29.86,NE,45,0.0,-999.0,98,-99.99,,,0.00,Acu-Link.com,2013-08-28 23:12:00,
2013-08-28 19:27:00,69.1,68.5,29.88,WNW,292,0.0,-999.0,98,-99.99,,,0.00,Acu-Link.com,2013-08-28 23:27:00,
2013-08-28 19:42:00,68.2,67.6,29.88,NNE,22,0.0,-999.0,98,-99.99,,,0.00,Acu-Link.com,2013-08-28 23:42:00,
2013-08-28 19:58:00,67.8,67.2,29.89,WNW,292,0.0,-999.0,98,-99.99,,,0.00,Acu-Link.com,2013-08-28 23:58:00,
2013-08-28 20:13:00,67.3,66.7,29.91,WNW,292,0.0,-999.0,98,-99.99,,,0.00,Acu-Link.com,2013-08-29 00:13:00,
2013-08-28 20:28:00,66.9,66.3,29.91,NNE,22,0.0,-999.0,98,-99.99,,,0.00,Acu-Link.com,2013-08-29 00:28:00,
2013-08-28 20:43:00,66.7,66.1,29.92,East,90,0.0,-999.0,98,-99.99,,,0.00,Acu-Link.com,2013-08-29 00:43:00,
2013-08-28 20:58:00,66.6,66.0,29.93,ESE,112,0.0,-999.0,98,-99.99,,,0.00,Acu-Link.com,2013-08-29 00:58:00,
2013-08-28 21:14:00,67.1,66.5,29.94,NNE,22,1.1,-999.0,98,-99.99,,,0.00,Acu-Link.com,2013-08-29 01:14:00,
2013-08-28 21:29:00,66.7,66.1,29.95,SW,225,1.1,-999.0,98,-99.99,,,0.00,Acu-Link.com,2013-08-29 01:29:00,
2013-08-28 21:44:00,66.7,66.1,29.95,NW,315,1.1,-999.0,98,-99.99,,,0.00,Acu-Link.com,2013-08-29 01:44:00,
2013-08-28 21:59:00,66.6,66.0,29.96,NNW,337,0.0,-999.0,98,-99.99,,,0.00,Acu-Link.com,2013-08-29 01:59:00,
2013-08-28 22:14:00,66.2,65.6,29.95,NE,45,0.0,-999.0,98,-99.99,,,0.00,Acu-Link.com,2013-08-29 02:14:00,
2013-08-28 22:30:00,65.7,65.1,29.97,NE,45,0.0,-999.0,98,-99.99,,,0.00,Acu-Link.com,2013-08-29 02:30:00,
2013-08-28 22:45:00,65.3,64.7,29.96,NE,45,0.0,-999.0,98,-99.99,,,0.01,Acu-Link.com,2013-08-29 02:45:00,
2013-08-28 23:00:00,65.3,64.7,29.96,NE,45,0.0,-999.0,98,-99.99,,,0.02,Acu-Link.com,2013-08-29 03:00:00,
2013-08-28 23:15:00,64.9,64.3,29.95,NE,45,0.0,-999.0,98,-99.99,,,0.03,Acu-Link.com,2013-08-29 03:15:00,
2013-08-28 23:31:00,64.6,64.0,29.95,NE,45,0.0,-999.0,98,-99.99,,,0.03,Acu-Link.com,2013-08-29 03:31:00,
2013-08-28 23:46:00,64.6,64.0,29.94,NE,45,0.0,-999.0,98,-99.99,,,0.04,Acu-Link.com,2013-08-29 03:46:00,